Hourly Data Report for October 05, 2016

All times are specified in Local Standard Time (LST). Add 1 hour to adjust for Daylight Saving Time where and when it is observed.

RANKIN INLET A
NUNAVUT

62°48'38.000" N
92°06'53.000" W
32.30 m
2303405
71083
YRT

Download Data

Hourly Data (October 2016)
Hourly Data Report for October 5, 2016
Temp Definition
°C
Dew Point Temp Definition
°C
Rel Hum Definition
%
Wind Dir Definition
10's deg

Wind Spd Definition
km/h
Visibility Definition
km
Stn Press Definition
kPa
Hmdx Definition


Wind Chill Definition


Weather Definition


TIME
00:00 Legend Double Dagger -1.9 -3.8 87 30 22 16.1 101.85   -8 Snow Showers
01:00 Legend Double Dagger -1.8 -2.6 94 30 22 12.9 101.86   -8 Snow
02:00 Legend Double Dagger -2.1 -3.8 88 33 21 24.1 101.90   -8 LegendNANA
03:00 Legend Double Dagger -2.0 -3.7 88 35 11 24.1 101.95   -6 Mainly Clear
04:00 Legend Double Dagger -1.8 -3.7 87 35 10 24.1 102.00   -5 LegendNANA
05:00 Legend Double Dagger -1.7 -3.6 87 34 7 24.1 102.06   -4 LegendNANA
06:00 Legend Double Dagger -1.3 -3.3 86 34 11 24.1 102.10   -5 Mostly Cloudy
07:00 Legend Double Dagger -1.8 -3.5 88 35 17 24.1 102.13   -7 Snow
08:00 Legend Double Dagger -0.8 -4.3 77 34 25 24.1 102.16   -7 Snow
09:00 Legend Double Dagger -0.8 -4.5 76 36 22 24.1 102.19   -7 Mainly Clear
10:00 Legend Double Dagger -0.2 -4.7 72 36 23 24.1 102.18   -6 LegendNANA
11:00 Legend Double Dagger 0.0 -4.1 74 36 21 24.1 102.19   -5 LegendNANA
12:00 Legend Double Dagger 1.0 -3.3 73 35 17 24.1 102.20     Mostly Cloudy
13:00 Legend Double Dagger 1.1 -3.2 73 34 22 24.1 102.18     LegendNANA
14:00 Legend Double Dagger 1.0 -1.9 81 35 19 24.1 102.18     LegendNANA
15:00 Legend Double Dagger 1.1 -1.5 83 34 19 24.1 102.20     Cloudy
16:00 Legend Double Dagger 0.9 -1.2 86 34 14 24.1 102.16     LegendNANA
17:00 Legend Double Dagger -0.2 -1.2 93 34 9 24.1 102.19   -3 LegendNANA
18:00 Legend Double Dagger -0.4 -1.1 95 34 12 24.1 102.22   -4 Mostly Cloudy
19:00 Legend Double Dagger -0.1 -0.8 95 35 16 4.8 102.20   -5 Snow Showers
20:00 Legend Double Dagger -0.8 -1.7 94 1 16 24.1 102.19   -6 LegendNANA
21:00 Legend Double Dagger -1.0 -1.8 94 36 12 24.1 102.19   -5 Mainly Clear
22:00 Legend Double Dagger -0.6 -1.7 92 1 15 24.1 102.17   -5 LegendNANA
23:00 Legend Double Dagger -1.7 -2.8 92 1 12 24.1 102.16   -6 LegendNANA

Notes on Data Quality.

Legend

  • E = Estimated
  • M = Missing
  • NA = Not Available
  • ‡ = Partner data that is not subject to review by the National Climate Archives
Date modified: